When you browse on this site, cookies collect data to enhance your experience and personalize the content and advertising you see.
Visit our Privacy Policy to learn more. By continuing to use the site, you agree to this use of cookies and data.
  • en Suisse
  • Liste des pays
  • À 7 jours
  • Température de l'eau
  • Carte météo
  • Widgets météo
  • user-avatar
    Se connecter

    Météo par heure à Klagenfurt

    Ce jour, 25 Mai, Lundi

    Heure Température Précipitation Vent Pression Humidité
    00:00 +8°C° 0 mm 1 m/s 697 mmHg 75%
    01:00 +8°C° 0 mm 1 m/s 697 mmHg 78%
    02:00 +7°C° 0 mm 1 m/s 697 mmHg 78%
    03:00 +7°C° 0 mm 1 m/s 697 mmHg 79%
    04:00 +7°C° 0 mm 1 m/s 697 mmHg 79%
    05:00 +9°C° 0 mm 1 m/s 697 mmHg 74%
    06:00 +10°C° 0 mm 0 m/s 697 mmHg 69%
    07:00 +13°C° 0 mm 1 m/s 698 mmHg 63%
    08:00 +14°C° 0.1 mm 1 m/s 698 mmHg 60%
    09:00 +16°C° 0.1 mm 1 m/s 698 mmHg 58%
    10:00 +18°C° 0.1 mm 1 m/s 698 mmHg 55%
    11:00 +18°C° 0.7 mm 1 m/s 698 mmHg 58%
    12:00 +18°C° 0.7 mm 1 m/s 697 mmHg 62%
    13:00 +18°C° 0.7 mm 1 m/s 697 mmHg 66%
    14:00 +18°C° 0.8 mm 1 m/s 697 mmHg 66%
    15:00 +18°C° 0.8 mm 1 m/s 696 mmHg 65%
    16:00 +16°C° 0.8 mm 1 m/s 696 mmHg 65%
    17:00 +15°C° 0.3 mm 1 m/s 696 mmHg 69%
    18:00 +14°C° 0.3 mm 1 m/s 696 mmHg 74%
    19:00 +12°C° 0.3 mm 1 m/s 696 mmHg 79%
    20:00 +11°C° 0.1 mm 1 m/s 696 mmHg 81%
    21:00 +9°C° 0.1 mm 1 m/s 696 mmHg 84%
    22:00 +8°C° 0.1 mm 1 m/s 696 mmHg 86%
    23:00 +8°C° 0 mm 1 m/s 697 mmHg 88%

    Demain, 26 Mai, Mardi

    Heure Température Précipitation Vent Pression Humidité
    00:00 +7°C° 0 mm 1 m/s 697 mmHg 90%
    01:00 +6°C° 0 mm 1 m/s 697 mmHg 91%
    02:00 +6°C° 0 mm 1 m/s 697 mmHg 92%
    03:00 +6°C° 0 mm 1 m/s 697 mmHg 93%
    04:00 +6°C° 0 mm 1 m/s 696 mmHg 93%
    05:00 +7°C° 0 mm 1 m/s 697 mmHg 88%
    06:00 +9°C° 0 mm 1 m/s 697 mmHg 83%
    07:00 +10°C° 0 mm 1 m/s 698 mmHg 78%
    08:00 +12°C° 0 mm 1 m/s 698 mmHg 67%
    09:00 +14°C° 0 mm 1 m/s 698 mmHg 56%
    10:00 +16°C° 0 mm 2 m/s 699 mmHg 45%
    11:00 +16°C° 0.1 mm 2 m/s 699 mmHg 43%
    12:00 +17°C° 0.1 mm 2 m/s 698 mmHg 42%
    13:00 +17°C° 0.1 mm 2 m/s 698 mmHg 41%
    14:00 +17°C° 0.2 mm 2 m/s 698 mmHg 46%
    15:00 +16°C° 0.2 mm 2 m/s 698 mmHg 52%
    16:00 +15°C° 0.2 mm 2 m/s 697 mmHg 58%
    17:00 +14°C° 0.2 mm 2 m/s 697 mmHg 65%
    18:00 +12°C° 0.2 mm 2 m/s 697 mmHg 72%
    19:00 +10°C° 0.2 mm 2 m/s 697 mmHg 79%
    20:00 +9°C° 0 mm 2 m/s 698 mmHg 82%
    21:00 +8°C° 0 mm 1 m/s 698 mmHg 84%
    22:00 +7°C° 0 mm 1 m/s 698 mmHg 86%
    23:00 +7°C° 0 mm 1 m/s 698 mmHg 87%

    Après-demain, 27 Mai, Mercredi

    Heure Température Précipitation Vent Pression Humidité
    00:00 +6°C° 0 mm 1 m/s 698 mmHg 87%
    01:00 +6°C° 0 mm 1 m/s 698 mmHg 87%
    02:00 +5°C° 0 mm 1 m/s 698 mmHg 87%
    03:00 +5°C° 0 mm 1 m/s 698 mmHg 88%
    04:00 +5°C° 0 mm 1 m/s 697 mmHg 88%
    05:00 +7°C° 0 mm 1 m/s 698 mmHg 81%
    06:00 +9°C° 0 mm 1 m/s 698 mmHg 75%
    07:00 +11°C° 0 mm 1 m/s 698 mmHg 69%
    08:00 +13°C° 0 mm 1 m/s 699 mmHg 59%
    09:00 +15°C° 0 mm 1 m/s 699 mmHg 49%
    10:00 +19°C° 0 mm 1 m/s 699 mmHg 39%
    11:00 +20°C° 0 mm 1 m/s 699 mmHg 37%
    12:00 +21°C° 0 mm 1 m/s 699 mmHg 36%
    13:00 +22°C° 0 mm 1 m/s 699 mmHg 34%
    14:00 +21°C° 0 mm 1 m/s 698 mmHg 36%
    15:00 +21°C° 0 mm 1 m/s 698 mmHg 37%
    16:00 +20°C° 0 mm 1 m/s 698 mmHg 39%
    17:00 +19°C° 0 mm 1 m/s 697 mmHg 49%
    18:00 +16°C° 0 mm 1 m/s 697 mmHg 60%
    19:00 +13°C° 0 mm 0 m/s 697 mmHg 70%
    20:00 +12°C° 0 mm 0 m/s 697 mmHg 71%
    21:00 +10°C° 0 mm 0 m/s 697 mmHg 73%
    22:00 +10°C° 0 mm 1 m/s 697 mmHg 75%
    23:00 +10°C° 0 mm 1 m/s 697 mmHg 77%

    28 Mai, Jeudi

    Heure Température Précipitation Vent Pression Humidité
    00:00 +9°C° 0 mm 1 m/s 696 mmHg 79%
    01:00 +9°C° 0 mm 1 m/s 696 mmHg 81%
    02:00 +9°C° 0 mm 1 m/s 696 mmHg 81%
    03:00 +8°C° 0 mm 1 m/s 696 mmHg 82%
    04:00 +8°C° 0 mm 1 m/s 695 mmHg 83%
    05:00 +10°C° 0 mm 1 m/s 696 mmHg 78%
    06:00 +10°C° 0 mm 0 m/s 696 mmHg 73%
    07:00 +12°C° 0 mm 0 m/s 696 mmHg 68%
    08:00 +14°C° 0 mm 1 m/s 696 mmHg 62%
    09:00 +16°C° 0 mm 1 m/s 696 mmHg 56%
    10:00 +19°C° 0 mm 1 m/s 696 mmHg 50%
    11:00 +19°C° 0.3 mm 1 m/s 696 mmHg 50%
    12:00 +20°C° 0.3 mm 1 m/s 696 mmHg 50%
    13:00 +21°C° 0.3 mm 1 m/s 696 mmHg 50%
    14:00 +20°C° 0.3 mm 1 m/s 695 mmHg 53%
    15:00 +20°C° 0.3 mm 1 m/s 695 mmHg 56%
    16:00 +19°C° 0.3 mm 1 m/s 694 mmHg 60%
    17:00 +16°C° 0.5 mm 1 m/s 694 mmHg 69%
    18:00 +15°C° 0.5 mm 1 m/s 694 mmHg 79%
    19:00 +13°C° 0.5 mm 1 m/s 693 mmHg 89%
    20:00 +12°C° 0.3 mm 1 m/s 693 mmHg 90%
    21:00 +11°C° 0.3 mm 1 m/s 693 mmHg 91%
    22:00 +11°C° 0.3 mm 1 m/s 694 mmHg 92%
    23:00 +10°C° 0.2 mm 1 m/s 694 mmHg 93%

    29 Mai, Vendredi

    Heure Température Précipitation Vent Pression Humidité
    00:00 +9°C° 0.2 mm 0 m/s 693 mmHg 94%
    01:00 +9°C° 0.2 mm 0 m/s 693 mmHg 94%
    02:00 +9°C° 0.1 mm 0 m/s 693 mmHg 94%
    03:00 +8°C° 0.1 mm 0 m/s 693 mmHg 94%
    04:00 +8°C° 0.1 mm 0 m/s 692 mmHg 94%
    05:00 +8°C° 0 mm 0 m/s 692 mmHg 93%
    06:00 +9°C° 0 mm 0 m/s 692 mmHg 92%
    07:00 +9°C° 0 mm 0 m/s 692 mmHg 91%
    08:00 +10°C° 0 mm 1 m/s 692 mmHg 86%
    09:00 +11°C° 0 mm 1 m/s 692 mmHg 81%
    10:00 +11°C° 0 mm 1 m/s 692 mmHg 77%
    11:00 +12°C° 0.1 mm 1 m/s 691 mmHg 72%
    12:00 +13°C° 0.1 mm 1 m/s 691 mmHg 67%
    13:00 +14°C° 0.1 mm 2 m/s 691 mmHg 63%
    14:00 +15°C° 0.1 mm 2 m/s 690 mmHg 63%
    15:00 +15°C° 0.1 mm 2 m/s 690 mmHg 64%
    16:00 +15°C° 0.1 mm 2 m/s 690 mmHg 65%
    17:00 +14°C° 0.1 mm 1 m/s 689 mmHg 71%
    18:00 +13°C° 0.1 mm 1 m/s 689 mmHg 78%
    19:00 +12°C° 0.1 mm 1 m/s 689 mmHg 84%
    20:00 +10°C° 0.3 mm 0 m/s 689 mmHg 88%
    21:00 +9°C° 0.3 mm 0 m/s 689 mmHg 91%
    22:00 +8°C° 0.3 mm 0 m/s 689 mmHg 94%
    23:00 +9°C° 1 mm 0 m/s 689 mmHg 95%

    30 Mai, Samedi

    Heure Température Précipitation Vent Pression Humidité
    00:00 +9°C° 1 mm 0 m/s 689 mmHg 96%
    01:00 +10°C° 1 mm 1 m/s 689 mmHg 97%
    02:00 +9°C° 2.1 mm 1 m/s 688 mmHg 97%
    03:00 +9°C° 2.1 mm 1 m/s 688 mmHg 98%
    04:00 +9°C° 2.1 mm 1 m/s 688 mmHg 98%
    05:00 +8°C° 2.5 mm 1 m/s 689 mmHg 97%
    06:00 +8°C° 2.5 mm 1 m/s 689 mmHg 96%
    07:00 +8°C° 2.5 mm 1 m/s 689 mmHg 95%
    08:00 +9°C° 0.4 mm 1 m/s 689 mmHg 90%
    09:00 +10°C° 0.4 mm 1 m/s 690 mmHg 85%
    10:00 +9°C° 0.4 mm 2 m/s 690 mmHg 79%
    11:00 +12°C° 0.1 mm 2 m/s 691 mmHg 70%
    12:00 +13°C° 0.1 mm 2 m/s 691 mmHg 60%
    13:00 +14°C° 0.1 mm 2 m/s 691 mmHg 51%
    14:00 +14°C° 0.1 mm 2 m/s 691 mmHg 52%
    15:00 +14°C° 0.1 mm 2 m/s 691 mmHg 54%
    16:00 +14°C° 0.1 mm 2 m/s 691 mmHg 56%
    17:00 +13°C° 0.1 mm 1 m/s 690 mmHg 65%
    18:00 +11°C° 0.1 mm 1 m/s 690 mmHg 74%
    19:00 +10°C° 0.1 mm 1 m/s 690 mmHg 83%
    20:00 +9°C° 0 mm 1 m/s 690 mmHg 87%
    21:00 +7°C° 0 mm 1 m/s 690 mmHg 90%
    22:00 +6°C° 0 mm 1 m/s 690 mmHg 94%
    23:00 +6°C° 0 mm 1 m/s 690 mmHg 94%
    Voir plus